Regional Weather Roundup
Issued by NWS Northern Indiana

Home | Current Version | Previous Version | Graphics & Text | Print | Product List | Glossary On
Versions: 1 2 3 4 5 6 7 8 9 10 11 12 13 14 15 16 17 18 19 20 21 22 23 24 25 26 27 28 29 30 31 32 33 34 35 36 37 38 39 40 41 42 43 44 45 46 47 48 49 50
000
ASUS43 KIWX 202200
RWRIWX

KIWX WEATHER ROUNDUP
NATIONAL WEATHER SERVICE NORTHERN INDIANA
600 PM EDT SUN APR 20 2014

NOTE: "FAIR" INDICATES FEW OR NO CLOUDS BELOW 12,000 FEET WITH NO
SIGNIFICANT WEATHER AND/OR OBSTRUCTIONS TO VISIBILITY.

* THESE STATIONS ARE NOT UNDER NWS QUALITY CONTROL. THEY ALSO MAY NOT
  REPORT WEATHER SUCH AS PRECIPITATION OR FOG.

INZ001>027-202300-
NORTHERN INDIANA

CITY           SKY/WX    TMP DP  RH WIND       PRES   REMARKS
GARY*          PTSUNNY   79  36  21 S7        30.09F
VALPARAISO     MOSUNNY   74  35  24 VRB5      30.11F
SOUTH BEND     MOSUNNY   75  33  21 S10       30.13F
ELKHART*       MOSUNNY   72  27  18 CALM      30.14F
GOSHEN         MOSUNNY   74  31  20 SW9       30.13F
ANGOLA*        SUNNY     72  34  25 SW6       30.14F
FORT WAYNE     PTSUNNY   73  33  23 SW8       30.15F
PERU/GRISSOM   MOSUNNY   76  31  19 VRB1      30.13F

$$
INZ028>050-202300-
CENTRAL INDIANA

CITY           SKY/WX    TMP DP  RH WIND       PRES   REMARKS
LAFAYETTE      SUNNY     74  37  26 SE3       30.12F
KOKOMO*          N/A     73  30  20 SW7       30.14S
MUNCIE*        MOSUNNY   74  35  24 SW7       30.14F
INDIANAPOLIS   PTSUNNY   73  31  21 S5        30.13F

$$
MIZ043>046-050>051-056>058-064>065-071>073-077>080-202300-
SOUTHWEST LOWER MICHIGAN

CITY           SKY/WX    TMP DP  RH WIND       PRES   REMARKS
BATTLE CREEK   SUNNY     72  30  21 SW7       30.14F
BENTON HARBOR  PTSUNNY   71  37  28 W8        30.12F
COLDWATER*     SUNNY     70  26  18 SW8       30.13F
HILLSDALE*     SUNNY     72  24  17 S7        30.15F
HOLLAND        MOSUNNY   73  36  25 SW12      30.12F
GRAND RAPIDS   MOSUNNY   73  31  21 S5        30.12F
KALAMAZOO      SUNNY     72  27  18 S9        30.13F
STURGIS*       MOSUNNY   72  34  25 SW8       30.13F
THREE RIVERS*  FAIR      73  26  18 CALM      30.14S

$$
OHZ001>008-015>018-024>025-202300-
NORTHWEST OHIO

CITY           SKY/WX    TMP DP  RH WIND       PRES   REMARKS
DEFIANCE       SUNNY     73  27  18 S5        30.15F
FINDLAY        SUNNY     72  32  23 S6        30.15F
TOLEDO EXPRESS SUNNY     73  26  17 S12       30.15F
TOLEDO METCALF SUNNY     69  39  33 NE8       30.17F
LIMA           SUNNY     74  32  21 VRB7      30.15F

$$
&&



USA.gov is the U.S. government's official web portal to all federal, state and local government web resources and services.